Powrót do katalogu

STARLINK-38035

AktywnyŁącznośćSSO
NORAD 69759·PAYLOAD·🇺🇸 United States

Wystrzelony Jul 2, 2026 z Vandenberg Space Force Base

Loading…

Następne Przeloty (najbliższe 24 godziny)

TLE

ŚwieżeSource: CelesTrak SupGP

Epoka: Sep 15, 2026, 03:21 UTC

1 69759C 26150W   26258.14006944 -.00040882  00000+0 -12690-2 0  2582
2 69759  97.2850  97.1197 0001747  93.5397 237.1506 15.33460341    13

Śledź STARLINK-38035 w czasie rzeczywistym z AllMySat

Download on the App Store